Location: Unspecified
(44.0704°N, 88.6889°W)
Time: 06:32:31
(UTC+01:00)

CZ-3 Stage 3 - Pass Details

Date: 21 November 2019
Orbit: 406 x 34784 km, 30.6° (Epoch: 09 December)

Event Time Altitude Azimuth Distance (km) Brightness Sun altitude
Rises 01:35:46 0° 200° (SSW) 14,470 9.3 -23.4°
Reaches altitude 10° 08:12:49 10° 202° (SSW) 33,917 10.5 -59.1°
Maximum altitude 10:41:48 27° 172° (S) 7,107 7.3 -34.8°
Drops below altitude 10° 10:54:19 10° 120° (ESE) 4,578 7.1 -32.6°
Sets 10:57:04 0° 105° (ESE) 4,693 7.5 -32.1°
